Location: Beddau
(51.5575°N, 3.3561°W)
Time: 17:53:34
(UTC+00:00)

Cosmos 1689 Rocket - Pass Details

Date: 03 March 2021
Orbit: 350 x 361 km, 97.5° (Epoch: 13 April)

Event Time Altitude Azimuth Distance (km) Brightness Sun altitude
Rises 18:54:47 0° 18° (NNE) 2,210 5.7 -9.7°
Reaches altitude 10° 18:56:46 10° 24° (NNE) 1,360 4.6 -10.0°
Maximum altitude 18:59:35 48° 100° (E) 488 2.1 -10.4°
Drops below altitude 10° 19:02:23 10° 177° (S) 1,355 4.8 -10.9°
Sets 19:04:21 0° 184° (S) 2,200 5.9 -11.2°
